Regional Weather Roundup
Issued by NWS Corpus Christi, TX

Home | Current Version | Previous Version | Text Only | Print | Product List | Glossary On
Versions: 1 2 3 4 5 6 7 8 9 10 11 12 13 14 15 16 17 18 19 20 21 22 23 24 25 26 27 28
000
ASUS44 KCRP 310511
RWRCRP

SOUTH TEXAS REGIONAL WEATHER ROUNDUP
NATIONAL WEATHER SERVICE CORPUS CHRISTI TX
1200 AM CDT SAT JUL 31 2021


TXZ229>244-310600-
...CORPUS CHRISTI AREA OBSERVATIONS...

CITY           SKY/WX    TMP DP  RH WIND       PRES   REMARKS
CORPUS CHRISTI PTCLDY    80  79  96 S7        30.02S
NAS CORPUS CHR CLEAR     85  78  80 S14       30.02F HX  96
ROCKPORT       PTCLDY    85  78  80 S9        30.02S HX  96
KINGSVILLE NAS CLEAR     80  76  87 S7        30.02S
ALICE          CLEAR     79  76  90 S6        30.02F
$$

...VICTORIA AREA OBSERVATIONS...

CITY           SKY/WX    TMP DP  RH WIND       PRES   REMARKS
PORT LAVACA    PTCLDY    81  76  84 SE3       30.05R
VICTORIA       CLEAR     80  75  84 SE3       30.04S
BEEVILLE       FAIR      81  81 100 S3        30.03S HX  91
PLEASANTON     CLEAR    N/A N/A N/A SE3       30.05R
SAN ANTONIO    PTCLDY    83  75  77 S10       30.06R HX  90
$$

...LAREDO AREA OBSERVATIONS...

CITY           SKY/WX    TMP DP  RH WIND       PRES   REMARKS
LAREDO         CLEAR     86  74  67 SE17      30.02S HX  94
DEL RIO        CLEAR     89  67  47 E6        30.03S HX  92
MCALLEN        CLEAR     81  74  79 SE8       30.05S
HEBBRONVILLE   CLEAR     81  74  79 S8        30.06S
$$

...OTHER TEXAS OBSERVATIONS...

CITY           SKY/WX    TMP DP  RH WIND       PRES   REMARKS
BROWNSVILLE    CLEAR     79  75  87 S3        30.05S
HOUSTON        MOCLDY    80  74  81 S3        30.04F
COL. STATION   PTCLDY    81  73  76 S5        30.05R
AUSTIN         PTCLDY    79  73  82 S5        30.05R
TEMPLE         CLEAR     81  72  74 E7        30.06R
WACO           CLEAR     86  74  67 S9        30.04R HX  94
FORT WORTH     PTCLDY    87  74  64 S9        30.02S HX  95
WICHITA FALLS  CLEAR     80  70  71 S7        30.03S
LUBBOCK        PTCLDY    77  62  59 S6        30.16S
EL PASO        CLOUDY    81  53  37 E7        30.18R
$$

...MARINE OBSERVATIONS...

STATION/POSITION TIME  SKY/WX   TEMP    WIND        PRES    VSBY  WAVE   SWELL
                                AIR SEA DIR/SP/G                  HT/PER HT/PER
                 (UTC)          (F)     (DEG/KT/KT) (MB)    (MI)  (FT/S) (FT/S)
PORT ARANSAS     0500            84     160/ 14/ 17   N/A
MALAQUITE BEACH  0430            85     150/ 16/ 18   N/A
BUOY 6 SE PORT A NOT AVBL
BUOY 90 E PORT A 0450            84 87  160/ 12/ 14 1017.2S         2/ 6   2/ 6
BUOY 45 SE BAFFI 0450               86  180/ 12/ 14   N/A           2/ 6
BUOY 200 E PT IS 0450            85 86  170/  2/  2 1018.0S         2/ 6   2/ 6
BUOY 15 E GALVES 0450            85 88  210/ 10/ 12 1017.0R         1/ 6
$$



USA.gov is the U.S. government's official web portal to all federal, state and local government web resources and services.